Tracking 29790 objects as of 12-Oct-2024
HD Live streaming from Space Station
objects crossing your sky now

SL-14 DEB

Track SL-14 DEB now!
10-day predictions


NORAD ID: 45323
Int'l Code: 1991-056BM
Perigee: 1,188.9 km
Apogee: 1,195.3 km
Inclination: 82.5 °
Period: 109.1 minutes
Semi major axis: 7563 km
RCS: Unknown
Launch date: August 15, 1991
Source: Commonwealth of Independent States (former USSR) (CIS)
Launch site: PLESETSK MISSILE AND SPACE COMPLEX (PKMTR)

Note: This is SATELLITE DEBRIS
Your satellite tracking list
Your tracking list is empty




NASA's NSSDC Master Catalog

Two Line Element Set (TLE):
1 45323U 91056BM  24284.78510414  .00003530  00000-0  87558-2 0  9994
2 45323  82.5315 205.3604 0004211  14.8677 345.2570 13.19935462222302
Source of the keplerian elements: AFSPC